Home   Weather   Flint   Past weeks

Flag for USA Past Weather in Flint, Michigan, USA — Yesterday and Last 2 Weeks

Now
37 °F

Fog.


Feels Like: 37 °F
Forecast: 42 / 51 °F
Wind: No wind

Location: Bishop International Airport

Current Time: Jan 22, 2017 at 5:28:03 am

Latest Report: Jan 22, 2017 at 4:53 am


Visibility: 0 mi

Pressure: 29.59 "Hg

Humidity: 100%

Dew Point: 37 °F

Location of FlintLocation

Past Weather in Flint — Graph

°F

Flint Temperature Yesterday

Maximum temperature yesterday: 54 °F (at 4:03 pm)
Minimum temperature yesterday: 37 °F (at 12:03 am)
Average temperature yesterday: 44 °F

High & Low Weather Summary for the Past Weeks

 TemperatureHumidityPressure
High54 °F (Jan 21, 4:03 pm)100% (Jan 11, 11:53 pm)30.82 "Hg (Jan 11, 11:53 pm)
Low5 °F (Jan 7, 3:53 am)57% (Jan 13, 3:53 pm)29.32 "Hg (Jan 10, 8:00 pm)
Average29 °F85%30.10 "Hg
* Reported Jan 7 3:53 am — Jan 22 3:53 am, Flint, Weather by CustomWeather, © 2017

Note: Actual official high and low records may vary slightly from our data, if they occured in-between our weather recording intervals... More about our weather records

Advertising

Flint Weather History for the Previous 24 Hours

Scroll right to see more
 ConditionsComfort  
Time TempWeatherWind HumidityBarometerVisibility
3:53 am
Sun, Jan 22
36 °FFog.No wind100%29.61 "Hg0 mi
2:53 am36 °FFog.No wind100%29.61 "Hg0 mi
2:21 am38 °FFog.5 mph100%29.60 "Hg0 mi
1:53 am43 °FFog.5 mph100%29.61 "Hg0 mi
1:08 am45 °FFog.5 mph100%29.60 "Hg2 mi
12:53 am45 °FFog.5 mph100%29.61 "Hg3 mi
11:53 pm
Sat, Jan 21
48 °FFog.7 mph96%29.62 "Hg6 mi
10:53 pm49 °FClear.7 mph93%29.61 "Hg7 mi
9:53 pm48 °FClear.6 mph96%29.62 "Hg7 mi
9:20 pm47 °FFog.6 mph97%29.61 "Hg3 mi
8:53 pm47 °FFog.5 mph97%29.61 "Hg6 mi
7:53 pm46 °FFog.8 mph96%29.60 "Hg5 mi
6:53 pm46 °FFog.6 mph96%29.60 "Hg5 mi
5:53 pm48 °FClear.7 mph93%29.59 "Hg9 mi
4:53 pm52 °FSunny.9 mph89%29.59 "Hg10 mi
4:03 pm54 °FScattered clouds.6 mph86%29.58 "Hg8 mi
3:11 pm52 °FFog.7 mph93%29.59 "Hg4 mi
3:00 pm52 °FFog.3 mph93%29.60 "Hg2 mi
1:53 pm50 °FFog.7 mph93%29.62 "Hg2 mi
12:53 pm50 °FFog.8 mph93%29.63 "Hg2 mi
11:53 am48 °FFog.8 mph96%29.65 "Hg2 mi
10:53 am46 °FFog.9 mph96%29.67 "Hg2 mi
10:31 am45 °FFog.9 mph100%29.67 "Hg2 mi
9:53 am44 °FFog.9 mph100%29.68 "Hg1 mi
8:53 am43 °FFog.8 mph97%29.67 "Hg1 mi
8:29 am41 °FFog.8 mph100%29.66 "Hg3 mi
7:53 am40 °FFog.6 mph97%29.69 "Hg5 mi
7:17 am39 °FFog.5 mph100%29.68 "Hg5 mi
6:53 am39 °FFog.3 mph100%29.71 "Hg5 mi
6:33 am38 °FFog.6 mph100%29.68 "Hg2 mi
5:53 am38 °FFog.6 mph100%29.70 "Hg4 mi
Weather by CustomWeather, © 2017

See weather overviewHow to use our weather pages